Home   Weather   Edmundston   Past weeks

Flag for Canada Past Weather in Edmundston, New Brunswick, Canada — Yesterday and Last 2 Weeks

Now
66 °F

Mild.


Feels Like: 66 °F
Forecast: 57 / 69 °F
Wind: 6 mph from South

Location: Riviere Du Loup

Current Time: Jul 27, 2017 at 4:06:42 am

Latest Report: Jul 27, 2017 at 3:00 am


Visibility: N/A

Pressure: 29.90 "Hg

Humidity: 70%

Dew Point: 56 °F

Location of EdmundstonLocation

Past Weather in Edmundston — Graph

°F

Edmundston Temperature Yesterday

Maximum temperature yesterday: 77 °F (at 5:00 pm)
Minimum temperature yesterday: 57 °F (at 6:00 am)
Average temperature yesterday: 66 °F

High & Low Weather Summary for the Past Weeks

 TemperatureHumidityPressure
High77 °F (Jul 26, 5:00 pm)99% (Jul 17, 7:00 am)30.18 "Hg (Jul 17, 7:00 am)
Low45 °F (Jul 23, 6:00 am)27% (Jul 25, 4:00 pm)29.68 "Hg (Jul 21, 7:00 pm)
Average64 °F68%29.96 "Hg
* Reported Jul 12 3:00 am — Jul 27 3:00 am, Edmundston. Weather by CustomWeather, © 2017

Note: Actual official high and low records may vary slightly from our data, if they occured in-between our weather recording intervals... More about our weather records

Advertising

Edmundston Weather History for the Previous 24 Hours

Scroll right to see more
 ConditionsComfort  
Time TempWeatherWind HumidityBarometerVisibility
3:00 am
Thu, Jul 27
66 °FMild.6 mph70%29.90 "HgN/A
2:00 am67 °FMild.6 mph68%29.91 "HgN/A
1:00 am68 °FMild.7 mph65%29.93 "HgN/A
12:00 am67 °FMild.6 mph64%29.95 "HgN/A
11:00 pm
Wed, Jul 26
68 °FMild.6 mph61%29.96 "HgN/A
10:00 pm70 °FMild.7 mph52%29.96 "HgN/A
9:00 pm72 °FMild.9 mph48%29.97 "HgN/A
8:00 pm74 °FMild.10 mph41%29.98 "HgN/A
6:00 pm77 °FMild.10 mph40%30.00 "HgN/A
5:00 pm77 °FMild.9 mph38%30.02 "HgN/A
4:00 pm75 °FMild.7 mph50%30.04 "HgN/A
3:00 pm71 °FMild.8 mph63%30.07 "HgN/A
2:00 pm71 °FMild.7 mph69%30.08 "HgN/A
1:00 pm70 °FMild.7 mph68%30.11 "HgN/A
12:00 pm70 °FMild.6 mph65%30.13 "HgN/A
11:00 am71 °FMild.8 mph59%30.15 "HgN/A
10:00 am68 °FMild.8 mph66%30.16 "HgN/A
9:00 am65 °FMild.7 mph71%30.18 "HgN/A
8:00 am61 °FCool.6 mph74%30.17 "HgN/A
7:00 am57 °FCool.5 mph77%30.16 "HgN/A
6:00 am57 °FCool.5 mph70%30.16 "HgN/A
5:00 am57 °FCool.5 mph61%30.16 "HgN/A
4:00 am58 °FRefreshingly cool.5 mph54%30.16 "HgN/A
Weather by CustomWeather, © 2017

See weather overviewHow to use our weather pages